Zurück zum Katalog

STARLINK-34998

AktivKommunikationVLEO
NORAD 65474·PAYLOAD·🇺🇸 United States

Gestartet Sep 3, 2025 von Cape Canaveral Space Force Station

Loading…

Nächste Überflüge (nächste 24 Stunden)

TLE

AktuellSource: CelesTrak SupGP

Epoche: Sep 14, 2026, 21:12 UTC

1 65474C 25195S   26257.88381944  .00002355  00000+0  75736-4 0  2578
2 65474  53.1596  99.1188 0001386  82.3660 291.5253 15.31696272    16

Verfolge STARLINK-34998 in Echtzeit mit AllMySat

Download on the App Store